Time,TemperatureF,DewpointF,PressureIn,WindDirection,WindDirectionDegrees,WindSpeedMPH,WindSpeedGustMPH,Humidity,HourlyPrecipIn,Conditions,Clouds,dailyrainin,SolarRadiationWatts/m^2,SoftwareType,DateUTC
2013-02-14 00:02:00,46.0,28.0,-100.00,South,180,7.0,10.0,49,0.00,,,0.00,0.000000,,2013-02-14 06:02:00,
2013-02-14 00:32:00,45.0,25.0,-100.00,South,175,8.0,12.0,46,0.00,,,0.00,0.000000,,2013-02-14 06:32:00,
2013-02-14 00:42:00,45.0,25.0,-100.00,South,175,8.0,12.0,46,0.00,,,0.00,0.000000,,2013-02-14 06:42:00,
2013-02-14 00:52:00,45.0,25.0,-100.00,South,175,8.0,12.0,46,0.00,,,0.00,0.000000,,2013-02-14 06:52:00,
2013-02-14 01:01:00,45.0,25.0,-100.00,South,175,8.0,12.0,46,0.00,,,0.00,0.000000,,2013-02-14 07:01:00,
2013-02-14 01:32:00,45.0,25.0,-100.00,South,169,7.0,12.0,45,0.00,,,0.00,0.000000,,2013-02-14 07:32:00,
2013-02-14 01:42:00,45.0,25.0,-100.00,South,169,7.0,12.0,45,0.00,,,0.00,0.000000,,2013-02-14 07:42:00,
2013-02-14 01:52:00,45.0,25.0,-100.00,South,169,7.0,12.0,45,0.00,,,0.00,0.000000,,2013-02-14 07:52:00,
2013-02-14 02:01:00,45.0,25.0,-100.00,South,169,7.0,12.0,45,0.00,,,0.00,0.000000,,2013-02-14 08:01:00,
2013-02-14 02:32:00,44.0,26.0,-100.00,South,175,6.0,9.0,49,0.00,,,0.00,0.000000,,2013-02-14 08:32:00,
2013-02-14 02:43:00,44.0,26.0,-100.00,South,175,6.0,9.0,49,0.00,,,0.00,0.000000,,2013-02-14 08:43:00,
2013-02-14 02:52:00,44.0,26.0,-100.00,South,175,6.0,9.0,49,0.00,,,0.00,0.000000,,2013-02-14 08:52:00,
2013-02-14 03:02:00,44.0,26.0,-100.00,South,175,6.0,9.0,49,0.00,,,0.00,0.000000,,2013-02-14 09:02:00,
2013-02-14 03:32:00,43.0,26.0,-100.00,South,176,6.0,9.0,51,0.00,,,0.00,0.000000,,2013-02-14 09:32:00,
2013-02-14 03:42:00,43.0,26.0,-100.00,South,176,6.0,9.0,51,0.00,,,0.00,0.000000,,2013-02-14 09:42:00,
2013-02-14 03:52:00,43.0,26.0,-100.00,South,176,6.0,9.0,51,0.00,,,0.00,0.000000,,2013-02-14 09:52:00,
2013-02-14 04:02:00,43.0,26.0,-100.00,South,176,6.0,9.0,51,0.00,,,0.00,0.000000,,2013-02-14 10:02:00,
2013-02-14 04:32:00,41.0,24.0,-100.00,SW,227,2.0,7.0,51,0.00,,,0.00,0.000000,,2013-02-14 10:32:00,
2013-02-14 04:42:00,41.0,24.0,-100.00,SW,227,2.0,7.0,51,0.00,,,0.00,0.000000,,2013-02-14 10:42:00,
2013-02-14 04:52:00,41.0,24.0,-100.00,SW,227,2.0,7.0,51,0.00,,,0.00,0.000000,,2013-02-14 10:52:00,
2013-02-14 05:02:00,41.0,24.0,-100.00,SW,227,2.0,7.0,51,0.00,,,0.00,0.000000,,2013-02-14 11:02:00,
2013-02-14 05:32:00,41.0,25.0,-100.00,SW,229,3.0,5.0,53,0.00,,,0.00,0.000000,,2013-02-14 11:32:00,
2013-02-14 05:42:00,41.0,25.0,-100.00,SW,229,3.0,5.0,53,0.00,,,0.00,0.000000,,2013-02-14 11:42:00,
2013-02-14 05:52:00,41.0,25.0,-100.00,SW,229,3.0,5.0,53,0.00,,,0.00,0.000000,,2013-02-14 11:52:00,
2013-02-14 06:02:00,41.0,25.0,-100.00,SW,229,3.0,5.0,53,0.00,,,0.00,0.000000,,2013-02-14 12:02:00,
2013-02-14 06:32:00,40.0,22.0,-100.00,SSE,165,2.0,5.0,49,0.00,,,0.00,0.000000,,2013-02-14 12:32:00,
2013-02-14 06:42:00,40.0,22.0,-100.00,SSE,165,2.0,5.0,49,0.00,,,0.00,0.000000,,2013-02-14 12:42:00,
2013-02-14 06:53:00,40.0,22.0,-100.00,SSE,165,2.0,5.0,49,0.00,,,0.00,0.000000,,2013-02-14 12:53:00,
2013-02-14 07:02:00,40.0,22.0,-100.00,SSE,165,2.0,5.0,49,0.00,,,0.00,0.000000,,2013-02-14 13:02:00,
2013-02-14 08:32:00,44.0,31.0,-100.00,SE,145,1.0,6.0,61,-99.99,,,0.00,51.000000,,2013-02-14 14:32:00,
2013-02-14 08:42:00,44.0,31.0,-100.00,SE,145,1.0,6.0,61,-99.99,,,0.00,51.000000,,2013-02-14 14:42:00,
2013-02-14 08:52:00,44.0,31.0,-100.00,SE,145,1.0,6.0,61,-99.99,,,0.00,51.000000,,2013-02-14 14:52:00,
2013-02-14 09:01:00,44.0,31.0,-100.00,SE,145,1.0,6.0,61,-99.99,,,0.00,51.000000,,2013-02-14 15:01:00,
2013-02-14 09:32:00,50.0,32.0,-100.00,SSW,197,3.0,7.0,49,0.00,,,0.00,280.000000,,2013-02-14 15:32:00,
2013-02-14 09:42:00,50.0,32.0,-100.00,SSW,197,3.0,7.0,49,0.00,,,0.00,280.000000,,2013-02-14 15:42:00,
2013-02-14 09:52:00,50.0,32.0,-100.00,SSW,197,3.0,7.0,49,0.00,,,0.00,280.000000,,2013-02-14 15:52:00,
2013-02-14 10:01:00,50.0,32.0,-100.00,SSW,197,3.0,7.0,49,0.00,,,0.00,280.000000,,2013-02-14 16:01:00,
2013-02-14 10:32:00,56.0,30.0,-100.00,WSW,244,8.0,12.0,37,0.00,,,0.00,516.000000,,2013-02-14 16:32:00,
2013-02-14 10:42:00,56.0,30.0,-100.00,WSW,244,8.0,12.0,37,0.00,,,0.00,516.000000,,2013-02-14 16:42:00,
2013-02-14 10:52:00,56.0,30.0,-100.00,WSW,244,8.0,12.0,37,0.00,,,0.00,516.000000,,2013-02-14 16:52:00,
2013-02-14 11:01:00,56.0,30.0,-100.00,WSW,244,8.0,12.0,37,0.00,,,0.00,516.000000,,2013-02-14 17:01:00,
2013-02-14 11:32:00,61.0,29.0,-100.00,WSW,255,8.0,14.0,30,0.00,,,0.00,709.000000,,2013-02-14 17:32:00,
2013-02-14 11:42:00,61.0,29.0,-100.00,WSW,255,8.0,14.0,30,0.00,,,0.00,709.000000,,2013-02-14 17:42:00,
2013-02-14 11:52:00,61.0,29.0,-100.00,WSW,255,8.0,14.0,30,0.00,,,0.00,709.000000,,2013-02-14 17:52:00,
2013-02-14 12:01:00,61.0,29.0,-100.00,WSW,255,8.0,14.0,30,0.00,,,0.00,709.000000,,2013-02-14 18:01:00,
2013-02-14 12:32:00,65.0,27.0,-100.00,WSW,258,7.0,15.0,24,0.00,,,0.00,842.000000,,2013-02-14 18:32:00,
2013-02-14 12:42:00,65.0,27.0,-100.00,WSW,258,7.0,15.0,24,0.00,,,0.00,842.000000,,2013-02-14 18:42:00,
2013-02-14 12:52:00,65.0,27.0,-100.00,WSW,258,7.0,15.0,24,0.00,,,0.00,842.000000,,2013-02-14 18:52:00,
2013-02-14 13:02:00,65.0,27.0,-100.00,WSW,258,7.0,15.0,24,0.00,,,0.00,842.000000,,2013-02-14 19:02:00,
2013-02-14 13:32:00,67.0,26.0,-100.00,West,269,8.0,14.0,21,0.00,,,0.00,903.000000,,2013-02-14 19:32:00,
2013-02-14 13:42:00,67.0,26.0,-100.00,West,269,8.0,14.0,21,0.00,,,0.00,903.000000,,2013-02-14 19:42:00,
2013-02-14 13:52:00,67.0,26.0,-100.00,West,269,8.0,14.0,21,0.00,,,0.00,903.000000,,2013-02-14 19:52:00,
2013-02-14 14:01:00,67.0,26.0,-100.00,West,269,8.0,14.0,21,0.00,,,0.00,903.000000,,2013-02-14 20:01:00,
2013-02-14 14:32:00,69.0,24.0,-100.00,SW,235,6.0,11.0,18,0.00,,,0.00,871.000000,,2013-02-14 20:32:00,
2013-02-14 14:42:00,69.0,24.0,-100.00,SW,235,6.0,11.0,18,0.00,,,0.00,871.000000,,2013-02-14 20:42:00,
2013-02-14 14:52:00,69.0,24.0,-100.00,SW,235,6.0,11.0,18,0.00,,,0.00,871.000000,,2013-02-14 20:52:00,
2013-02-14 15:02:00,69.0,24.0,-100.00,SW,235,6.0,11.0,18,0.00,,,0.00,871.000000,,2013-02-14 21:02:00,
2013-02-14 15:32:00,69.0,24.0,-100.00,SSE,166,8.0,15.0,18,0.00,,,0.00,769.000000,,2013-02-14 21:32:00,
2013-02-14 15:42:00,69.0,24.0,-100.00,SSE,166,8.0,15.0,18,0.00,,,0.00,769.000000,,2013-02-14 21:42:00,
2013-02-14 15:52:00,69.0,24.0,-100.00,SSE,166,8.0,15.0,18,0.00,,,0.00,769.000000,,2013-02-14 21:52:00,
2013-02-14 16:02:00,69.0,24.0,-100.00,SSE,166,8.0,15.0,18,0.00,,,0.00,769.000000,,2013-02-14 22:02:00,
2013-02-14 16:32:00,70.0,19.0,-100.00,SSE,167,7.0,13.0,14,0.00,,,0.00,610.000000,,2013-02-14 22:32:00,
2013-02-14 16:42:00,70.0,19.0,-100.00,SSE,167,7.0,13.0,14,0.00,,,0.00,610.000000,,2013-02-14 22:42:00,
2013-02-14 16:52:00,70.0,19.0,-100.00,SSE,167,7.0,13.0,14,0.00,,,0.00,610.000000,,2013-02-14 22:52:00,
2013-02-14 17:01:00,70.0,19.0,-100.00,SSE,167,7.0,13.0,14,0.00,,,0.00,610.000000,,2013-02-14 23:01:00,
2013-02-14 17:32:00,69.0,19.0,-100.00,SSE,154,5.0,12.0,15,0.00,,,0.00,409.000000,,2013-02-14 23:32:00,
2013-02-14 17:42:00,69.0,19.0,-100.00,SSE,154,5.0,12.0,15,0.00,,,0.00,409.000000,,2013-02-14 23:42:00,
2013-02-14 17:52:00,69.0,19.0,-100.00,SSE,154,5.0,12.0,15,0.00,,,0.00,409.000000,,2013-02-14 23:52:00,
2013-02-14 18:01:00,69.0,19.0,-100.00,SSE,154,5.0,12.0,15,0.00,,,0.00,409.000000,,2013-02-15 00:01:00,
2013-02-14 18:32:00,65.0,20.0,-100.00,SSE,157,3.0,11.0,18,0.00,,,0.00,165.000000,,2013-02-15 00:32:00,
2013-02-14 18:42:00,65.0,20.0,-100.00,SSE,157,3.0,11.0,18,0.00,,,0.00,165.000000,,2013-02-15 00:42:00,
2013-02-14 18:52:00,65.0,20.0,-100.00,SSE,157,3.0,11.0,18,0.00,,,0.00,165.000000,,2013-02-15 00:52:00,
2013-02-14 19:02:00,65.0,20.0,-100.00,SSE,157,3.0,11.0,18,0.00,,,0.00,165.000000,,2013-02-15 01:02:00,
2013-02-14 19:32:00,59.0,21.0,-100.00,SE,135,3.0,8.0,23,0.00,,,-99.99,4.000000,,2013-02-15 01:32:00,
2013-02-14 19:42:00,59.0,21.0,-100.00,SE,135,3.0,8.0,23,0.00,,,-99.99,4.000000,,2013-02-15 01:42:00,
2013-02-14 19:52:00,59.0,21.0,-100.00,SE,135,3.0,8.0,23,0.00,,,-99.99,4.000000,,2013-02-15 01:52:00,
2013-02-14 20:01:00,59.0,21.0,-100.00,SE,135,3.0,8.0,23,0.00,,,-99.99,4.000000,,2013-02-15 02:01:00,
2013-02-14 20:32:00,56.0,24.0,-100.00,East,91,5.0,8.0,29,0.00,,,0.00,0.000000,,2013-02-15 02:32:00,
2013-02-14 20:42:00,56.0,24.0,-100.00,East,91,5.0,8.0,29,0.00,,,0.00,0.000000,,2013-02-15 02:42:00,
2013-02-14 20:52:00,56.0,24.0,-100.00,East,91,5.0,8.0,29,0.00,,,0.00,0.000000,,2013-02-15 02:52:00,
2013-02-14 21:02:00,56.0,24.0,-100.00,East,91,5.0,8.0,29,0.00,,,0.00,0.000000,,2013-02-15 03:02:00,
2013-02-14 21:32:00,54.0,26.0,-100.00,East,85,5.0,7.0,34,0.00,,,0.00,0.000000,,2013-02-15 03:32:00,
2013-02-14 21:42:00,54.0,26.0,-100.00,East,85,5.0,7.0,34,0.00,,,0.00,0.000000,,2013-02-15 03:42:00,
2013-02-14 21:52:00,54.0,26.0,-100.00,East,85,5.0,7.0,34,0.00,,,0.00,0.000000,,2013-02-15 03:52:00,
2013-02-14 22:01:00,54.0,26.0,-100.00,East,85,5.0,7.0,34,0.00,,,0.00,0.000000,,2013-02-15 04:01:00,
2013-02-14 22:32:00,53.0,27.0,-100.00,ESE,105,6.0,11.0,36,0.00,,,0.00,0.000000,,2013-02-15 04:32:00,
2013-02-14 22:42:00,53.0,27.0,-100.00,ESE,105,6.0,11.0,36,0.00,,,0.00,0.000000,,2013-02-15 04:42:00,
2013-02-14 22:52:00,53.0,27.0,-100.00,ESE,105,6.0,11.0,36,0.00,,,0.00,0.000000,,2013-02-15 04:52:00,
2013-02-14 23:02:00,53.0,27.0,-100.00,ESE,105,6.0,11.0,36,0.00,,,0.00,0.000000,,2013-02-15 05:02:00,
2013-02-14 23:32:00,50.0,29.0,-100.00,North,352,5.0,9.0,45,0.00,,,0.00,0.000000,,2013-02-15 05:32:00,
2013-02-14 23:42:00,50.0,29.0,-100.00,North,352,5.0,9.0,45,0.00,,,0.00,0.000000,,2013-02-15 05:42:00,
2013-02-14 23:52:00,50.0,29.0,-100.00,North,352,5.0,9.0,45,0.00,,,0.00,0.000000,,2013-02-15 05:52:00,